SCP
1 1 1 0 0 0 0 0 0 0 1 1 0 0 0 0 0 0 0 0 0 0 0 0 0 1 1 1 1 1 1 1 1 1 1 1 1 1 2 1 1 1 1
1 1 1 1 0 0 0 0 0 1 1 1 0 0 0 0 0 0 1 0 0 1 1 1 1 2 1 1 1 1 1 1 1 0 0 0 0 0 0 1 1 1 1
0 1 0 0 0 0 0 0 0 1 1 1 1 1 1 1 1 1 1 1 1 1 1 1 1 1 0 0 0 0 0 0 0 0 0 0 0 0 0 0 0 0 0
1 1 0 0 0 0 0 0 0 1 1 0 0 1 1 1 1 1 0 0 0 0 0 0 0 0 1 1 1 0 0 0 1 0 1 0 0 0 0 0 0 -0 0
0 0 1 1 0 0 0 0 0 0 1 1 1 1 0 1 0 0 0 0 0 0 0 0 0 0 0 0 0 0 0 0 0 0 0 0 0 0 0 0 0 0 0
0 1 1 1 1 0 0 0 0 0 0 0 1 0 1 0 0 0 0 0 0 0 0 0 0 0 0 0 0 0 0 0 0 0 0 0 0 0 1 0 0 0 0
0 1 1 0 0 0 0 0 0 0 0 0 0 0 0 0 0 0 0 0 0 0 0 0 0 0 0 0 0 0 0 0 0 0 0 0 0 0 0 0 0 0 0
1 1 0 0 0 0 0 0 0 0 0 0 0 0 0 0 0 0 0 0 0 0 0 0 0 0 0 0 0 0 0 0 0 0 0 0 0 0 0 0 0 0 0
1 1 0 0 0 0 0 0 0 0 0 0 0 0 0 0 0 0 0 0 0 0 0 0 0 0 0 0 0 0 0 0 0 0 0 0 0 0 0 0 0 0 0
1 0 0 0 0 0 0 0 0 0 0 0 0 0 0 0 0 0 0 0 0 0 0 0 0 0 0 0 0 0 0 0 0 0 0 0 0 0 0 0 0 0 0
0 0 0 0 0 0 0 0 0 0 0 0 0 0 0 0 0 0 0 0 0 0 0 0 0 0 0 0 0 0 0 0 0 0 0 0 0 0 0 0 0 0 0
0 0 0 0 0 0 0 0 0 0 0 0 0 0 0 0 0 0 0 0 0 0 0 0 0 0 0 0 0 0 0 0 0 0 0 0 0 0 0 0 0 0 0
0 0 0 0 0 0 0 0 0 0 0 0 0 0 0 0 0 0 0 0 0 0 0 0 0 0 0 0 0 0 0 0 0 0 0 0 0 0 0 0 0 0 0
1 1 0 0 0 0 0 0 0 0 0 0 0 0 0 0 0 0 0 0 0 0 0 0 0 0 0 0 0 0 0 0 0 0 0 0 0 0 0 0 0 0 0
0 0 0 0 0 0 0 0 0 0 0 0 0 0 0 0 0 0 0 0 0 0 0 0 0 0 0 0 0 0 0 0 0 0 0 0 0 0 0 0 0 0 0
0 0 0 0 0 0 0 0 0 0 0 0 0 0 0 0 0 0 0 0 0 0 0 0 0 0 0 0 0 0 0 0 0 0 0 0 0 0 0 0 0 0 0
0 0 0 0 0 0 0 0 0 0 0 0 0 0 0 0 0 0 0 0 0 0 0 0 0 0 0 0 0 0 0 0 0 0 0 0 0 0 0 0 0 0 0
0 0 0 0 0 0 0 0 0 0 0 0 0 0 0 0 0 0 0 0 0 0 0 0 0 0 0 0 0 0 0 0 0 0 0 0 0 0 0 0 0 0 0
0 0 0 0 0 0 0 0 0 0 0 0 0 0 0 0 0 0 0 0 0 0 0 0 0 0 0 0 0 0 0 0 0 0 0 0 0 0 0 0 0 0 0
0 0 0 0 0 0 0 0 0 0 0 0 0 0 0 0 0 0 0 0 0 0 0 0 0 0 0 0 0 0 0 0 0 0 0 0 0 0 0 0 0 0 0
0 0 0 0 0 0 0 0 0 0 0 0 0 0 0 0 0 0 0 0 0 0 0 0 0 0 0 0 0 0 0 0 0 0 0 0 0 0 0 0 0 0 0
0 0 0 0 0 0 0 0 0 0 0 0 0 0 0 0 0 0 0 0 0 0 0 0 0 0 0 0 0 0 0 0 0 0 0 0 0 0 0 0 0 0 0
0 0 0 0 0 0 0 0 0 0 0 0 0 0 0 0 0 0 0 0 0 0 0 0 0 0 0 0 0 0 0 -0 -0 0 0 -0 -0 -0 0 0 0 0 0
0 0 0 0 0 0 0 0 0 0 0 0 0 0 0 0 0 0 0 0 0 0 0 0 0 0 0 0 0 0 0 -0 -0 -0 -0 -0 -0 -0 -0 0 0 0 0
0 0 0 0 0 0 0 0 0 0 0 0 0 0 0 0 0 0 0 0 0 0 0 0 0 0 0 0 0 0 0 0 0 -0 -0 -0 -0 0 0 0 0 0 0
0 0 0 0 0 0 0 0 0 0 0 0 0 0 0 0 0 0 0 0 0 0 0 0 0 0 0 0 0 0 0 0 0 -0 -0 -0 -0 0 0 0 0 0 0
Wind_Speed_500mb
29 29 34 35 31 32 35 36 38 39 38 37 33 29 28 25 25 26 32 30 30 32 34 28 24 25 26 28 31 32 33 34 36 21 24 26 29 27 27 31 37 38 40
29 29 33 31 29 30 35 36 37 41 43 37 31 28 27 24 21 22 25 28 28 32 33 30 27 35 27 29 36 43 46 51 52 49 64 68 73 84 66 58 36 34 38
29 27 28 31 31 33 37 37 36 41 45 40 37 32 27 33 27 26 32 32 33 38 45 34 29 29 42 45 53 58 64 61 67 73 64 42 58 59 64 77 90 89 86
27 23 22 23 27 30 32 39 42 45 43 48 36 41 32 28 30 44 41 37 42 40 36 37 40 45 60 54 65 71 64 56 56 54 56 71 66 49 48 50 63 86 82
32 27 24 22 20 25 29 33 38 40 43 45 42 38 35 45 43 41 40 34 34 35 34 40 38 38 40 40 37 35 34 35 31 35 40 45 54 67 70 61 54 51 60
35 29 27 25 21 21 24 27 30 33 36 37 41 43 45 46 43 39 37 37 36 36 35 31 27 24 26 31 34 36 37 39 40 42 43 48 47 49 47 65 70 63 72
37 36 32 28 25 23 21 25 27 29 31 33 35 37 38 38 38 39 38 35 32 30 30 25 22 22 21 20 21 25 28 31 33 35 38 39 38 44 49 53 61 64 60
38 35 32 28 26 25 23 24 26 26 28 30 32 34 35 36 36 35 33 30 24 23 20 19 18 19 19 19 18 18 21 25 28 32 36 41 45 47 51 52 49 65 66
40 38 33 30 27 25 22 23 25 28 28 29 29 30 31 30 29 25 24 23 22 22 21 21 20 18 16 15 14 16 17 20 23 28 33 36 40 45 49 57 58 53 45
37 35 34 31 28 25 25 25 24 23 24 25 26 26 26 26 25 24 25 24 24 23 20 19 16 14 14 14 13 16 20 20 18 19 31 34 35 39 42 40 41 50 52
34 35 36 32 28 25 26 29 29 29 28 26 27 26 26 26 25 25 24 23 22 20 18 15 13 12 13 14 14 13 14 13 17 20 21 24 28 24 30 36 38 37 43
27 33 35 33 29 26 24 27 31 32 31 33 34 32 30 28 27 25 23 21 20 18 17 16 15 13 11 10 10 10 13 15 15 17 18 21 21 26 27 29 35 37 38
20 28 33 32 29 28 27 28 30 30 28 28 30 33 33 32 30 29 28 25 23 20 18 15 11 9 10 10 12 13 14 18 18 15 17 19 23 26 29 32 37 40 43
10 21 27 26 27 28 29 29 31 32 31 33 32 33 34 33 34 33 31 28 25 23 21 18 16 15 12 11 11 9 12 12 11 13 16 17 19 25 32 34 37 43 45
13 4 12 21 24 27 29 30 33 34 34 36 38 38 38 37 37 37 35 32 29 26 22 20 19 17 14 10 8 8 5 6 8 13 13 17 26 30 31 33 38 41 39
19 13 5 5 10 19 27 31 38 39 39 41 43 41 42 42 41 40 37 34 30 28 25 23 21 20 14 24 16 14 8 7 8 10 12 18 22 20 26 30 33 33 34
18 16 12 9 9 10 14 26 40 46 49 50 50 53 54 50 46 43 39 37 34 30 28 25 25 24 21 24 19 16 10 9 9 11 12 15 18 17 21 30 35 28 20
26 23 21 19 18 18 17 22 27 47 54 58 58 54 53 51 47 44 42 38 35 34 31 30 28 25 23 29 23 20 16 14 12 11 10 11 17 24 28 31 31 23 33
34 33 33 32 32 29 26 25 23 31 45 52 57 56 55 53 50 49 46 41 38 37 35 33 31 29 28 27 25 22 19 17 14 13 12 13 13 19 20 22 21 32 30
39 42 43 43 42 37 34 33 30 27 40 45 58 58 59 59 57 54 50 43 40 38 35 34 33 32 25 31 27 24 21 22 14 16 16 20 15 21 24 17 18 24 25
43 43 45 46 45 43 40 41 37 35 31 40 48 59 66 68 63 58 51 48 43 39 40 37 34 34 30 28 25 30 29 25 20 12 16 14 23 11 16 12 19 19 24
42 42 46 47 43 43 44 46 46 39 37 36 47 58 65 74 69 66 57 51 46 43 43 40 37 35 32 31 29 30 35 34 23 14 16 17 21 2 10 9 12 9 11
40 39 41 42 40 37 41 49 48 45 42 40 45 46 60 71 80 75 67 58 52 47 47 46 42 37 32 29 33 31 34 38 31 20 25 29 14 8 4 4 2 13 20
41 40 39 39 40 41 43 43 45 44 46 46 46 46 54 66 83 89 87 75 58 52 52 52 47 41 36 31 29 33 33 32 30 25 30 27 22 18 20 20 20 18 18
38 38 39 42 40 42 45 42 46 45 49 49 47 47 46 62 79 88 97 93 75 63 55 57 52 49 44 39 37 34 30 26 25 24 27 26 21 16 19 19 19 20 17
41 39 39 40 42 41 42 39 39 42 48 51 51 46 44 47 70 82 92 84 73 60 56 56 53 49 46 47 45 41 42 41 39 27 32 30 27 23 21 21 19 19 21
Wind_Direction_500mb
169 172 183 197 195 203 208 211 209 208 205 198 203 205 208 210 214 215 220 231 237 236 238 241 244 254 253 254 262 279 276 277 277 291 293 288 293 287 288 277 272 261 264
168 173 189 197 201 204 210 212 209 210 210 204 197 202 204 206 201 209 220 231 236 246 252 243 235 235 251 282 280 283 278 275 274 277 282 288 279 266 276 270 272 283 278
177 176 188 201 205 207 210 209 208 209 209 202 201 202 199 203 210 225 234 235 237 251 255 255 251 246 252 254 243 261 271 270 260 257 250 249 258 268 268 268 267 265 269
187 177 177 193 203 209 212 213 213 213 209 212 207 208 206 215 215 229 245 255 253 255 264 265 257 256 250 252 247 254 263 268 264 267 252 254 254 264 272 279 276 257 272
193 187 178 181 187 200 206 212 216 216 218 217 209 217 219 227 239 245 249 250 255 256 254 261 265 260 255 259 257 253 247 245 250 254 262 264 276 263 249 267 264 270 270
197 192 187 180 184 194 199 199 203 212 217 219 221 222 230 237 241 238 241 248 252 257 262 266 265 253 247 252 253 251 254 259 263 264 261 266 267 272 259 262 263 268 263
197 195 193 188 192 183 179 192 196 199 206 211 217 224 227 228 233 243 246 243 245 252 258 254 251 250 249 252 255 256 258 258 259 263 260 257 256 258 258 265 269 271 272
200 199 197 193 192 186 179 187 189 197 201 206 211 218 223 225 228 229 233 232 226 229 237 236 242 247 252 256 258 259 257 260 262 263 263 263 265 262 263 264 267 274 275
207 204 198 193 186 180 181 179 188 196 198 204 205 207 209 212 213 218 215 218 223 234 240 246 251 254 258 260 261 256 262 265 267 270 267 268 268 267 267 267 273 276 284
207 207 202 193 187 183 186 188 194 199 206 203 202 203 206 205 206 211 217 219 226 228 228 232 236 244 257 266 270 280 280 278 274 273 278 277 277 279 277 274 274 270 273
205 205 199 196 191 190 192 198 201 204 204 206 212 212 210 210 211 214 217 218 218 216 219 225 235 250 264 272 272 275 284 294 297 298 299 297 296 292 291 283 281 279 274
199 199 198 195 194 197 196 200 204 206 207 209 211 213 217 218 217 217 217 217 218 218 220 229 240 254 270 286 298 308 315 318 316 313 310 305 300 300 298 293 290 283 280
187 194 195 198 201 203 204 205 208 210 205 208 216 220 216 214 214 218 218 218 220 222 229 239 250 266 275 289 305 317 324 322 318 318 316 314 310 311 300 298 293 289 287
183 194 201 208 212 213 216 215 214 212 211 215 212 215 216 216 217 220 219 219 221 226 232 238 244 248 254 268 287 300 314 321 329 326 319 323 319 319 312 307 301 297 283
72 110 221 226 229 229 226 226 225 222 218 218 216 216 215 214 217 220 220 219 221 224 227 235 236 239 242 236 237 263 290 315 321 322 329 320 314 324 325 316 313 307 288
54 53 38 282 267 245 241 239 237 232 225 223 223 222 220 217 219 221 222 224 225 225 231 230 227 232 220 244 252 246 250 281 307 325 328 331 325 337 331 321 324 313 308
22 20 13 350 315 292 271 259 246 239 232 229 227 230 228 222 221 219 219 219 220 222 224 224 225 231 223 250 246 248 224 256 284 306 331 334 315 329 326 341 343 338 322
341 335 329 323 316 310 300 292 270 240 234 233 235 228 224 220 216 214 215 216 216 219 222 221 228 228 226 247 245 248 236 249 263 275 303 315 328 308 326 339 339 332 332
321 314 310 306 303 302 302 301 295 253 241 236 232 228 223 219 215 214 215 214 215 220 221 222 227 225 222 243 242 243 228 242 251 261 260 279 301 305 326 337 337 344 352
309 306 303 300 296 293 294 297 294 276 255 242 238 230 226 223 218 217 216 217 213 219 222 222 227 226 221 253 240 234 219 234 237 242 265 271 286 308 331 338 343 338 1
307 303 301 297 289 287 287 284 284 277 267 253 244 239 231 225 222 220 214 216 214 213 220 223 223 222 230 238 244 228 204 223 229 217 254 238 281 324 351 348 6 32 17
306 306 302 297 292 285 280 279 276 277 275 266 251 241 237 231 223 218 214 213 211 212 217 221 221 223 223 228 236 221 216 218 222 211 226 238 271 284 110 61 59 78 3
311 307 303 300 294 288 277 273 272 270 273 273 263 250 240 235 226 219 212 210 208 207 214 219 217 217 222 219 230 222 217 216 215 205 225 227 231 165 127 346 204 297 310
316 312 303 300 298 296 284 274 273 270 266 269 271 264 247 237 228 224 218 213 206 206 211 214 211 211 210 206 218 205 206 207 210 202 210 202 196 229 244 274 304 309 297
319 325 307 303 303 300 293 283 275 272 270 267 267 269 261 246 233 229 223 220 216 211 209 213 208 201 203 199 188 183 192 196 204 201 211 223 231 249 270 281 289 289 281
328 328 326 315 304 305 299 292 279 274 270 267 264 266 267 268 249 237 226 219 220 223 224 211 212 207 199 203 195 192 192 197 208 215 213 225 237 243 257 272 280 280 269
Wind_Speed_850mb
29 29 34 35 31 32 35 36 38 39 38 37 33 29 28 25 25 26 32 30 30 32 34 28 24 25 26 28 31 32 33 34 36 21 24 26 29 27 27 31 37 38 40
29 29 33 31 29 30 35 36 37 41 43 37 31 28 27 24 21 22 25 28 28 32 33 30 27 35 27 29 36 43 46 51 52 49 64 68 73 84 66 58 36 34 38
29 27 28 31 31 33 37 37 36 41 45 40 37 32 27 33 27 26 32 32 33 38 45 34 29 29 42 45 53 58 64 61 67 73 64 42 58 59 64 77 90 89 86
27 23 22 23 27 30 32 39 42 45 43 48 36 41 32 28 30 44 41 37 42 40 36 37 40 45 60 54 65 71 64 56 56 54 56 71 66 49 48 50 63 86 82
32 27 24 22 20 25 29 33 38 40 43 45 42 38 35 45 43 41 40 34 34 35 34 40 38 38 40 40 37 35 34 35 31 35 40 45 54 67 70 61 54 51 60
35 29 27 25 21 21 24 27 30 33 36 37 41 43 45 46 43 39 37 37 36 36 35 31 27 24 26 31 34 36 37 39 40 42 43 48 47 49 47 65 70 63 72
37 36 32 28 25 23 21 25 27 29 31 33 35 37 38 38 38 39 38 35 32 30 30 25 22 22 21 20 21 25 28 31 33 35 38 39 38 44 49 53 61 64 60
38 35 32 28 26 25 23 24 26 26 28 30 32 34 35 36 36 35 33 30 24 23 20 19 18 19 19 19 18 18 21 25 28 32 36 41 45 47 51 52 49 65 66
40 38 33 30 27 25 22 23 25 28 28 29 29 30 31 30 29 25 24 23 22 22 21 21 20 18 16 15 14 16 17 20 23 28 33 36 40 45 49 57 58 53 45
37 35 34 31 28 25 25 25 24 23 24 25 26 26 26 26 25 24 25 24 24 23 20 19 16 14 14 14 13 16 20 20 18 19 31 34 35 39 42 40 41 50 52
34 35 36 32 28 25 26 29 29 29 28 26 27 26 26 26 25 25 24 23 22 20 18 15 13 12 13 14 14 13 14 13 17 20 21 24 28 24 30 36 38 37 43
27 33 35 33 29 26 24 27 31 32 31 33 34 32 30 28 27 25 23 21 20 18 17 16 15 13 11 10 10 10 13 15 15 17 18 21 21 26 27 29 35 37 38
20 28 33 32 29 28 27 28 30 30 28 28 30 33 33 32 30 29 28 25 23 20 18 15 11 9 10 10 12 13 14 18 18 15 17 19 23 26 29 32 37 40 43
10 21 27 26 27 28 29 29 31 32 31 33 32 33 34 33 34 33 31 28 25 23 21 18 16 15 12 11 11 9 12 12 11 13 16 17 19 25 32 34 37 43 45
13 4 12 21 24 27 29 30 33 34 34 36 38 38 38 37 37 37 35 32 29 26 22 20 19 17 14 10 8 8 5 6 8 13 13 17 26 30 31 33 38 41 39
19 13 5 5 10 19 27 31 38 39 39 41 43 41 42 42 41 40 37 34 30 28 25 23 21 20 14 24 16 14 8 7 8 10 12 18 22 20 26 30 33 33 34
18 16 12 9 9 10 14 26 40 46 49 50 50 53 54 50 46 43 39 37 34 30 28 25 25 24 21 24 19 16 10 9 9 11 12 15 18 17 21 30 35 28 20
26 23 21 19 18 18 17 22 27 47 54 58 58 54 53 51 47 44 42 38 35 34 31 30 28 25 23 29 23 20 16 14 12 11 10 11 17 24 28 31 31 23 33
34 33 33 32 32 29 26 25 23 31 45 52 57 56 55 53 50 49 46 41 38 37 35 33 31 29 28 27 25 22 19 17 14 13 12 13 13 19 20 22 21 32 30
39 42 43 43 42 37 34 33 30 27 40 45 58 58 59 59 57 54 50 43 40 38 35 34 33 32 25 31 27 24 21 22 14 16 16 20 15 21 24 17 18 24 25
43 43 45 46 45 43 40 41 37 35 31 40 48 59 66 68 63 58 51 48 43 39 40 37 34 34 30 28 25 30 29 25 20 12 16 14 23 11 16 12 19 19 24
42 42 46 47 43 43 44 46 46 39 37 36 47 58 65 74 69 66 57 51 46 43 43 40 37 35 32 31 29 30 35 34 23 14 16 17 21 2 10 9 12 9 11
40 39 41 42 40 37 41 49 48 45 42 40 45 46 60 71 80 75 67 58 52 47 47 46 42 37 32 29 33 31 34 38 31 20 25 29 14 8 4 4 2 13 20
41 40 39 39 40 41 43 43 45 44 46 46 46 46 54 66 83 89 87 75 58 52 52 52 47 41 36 31 29 33 33 32 30 25 30 27 22 18 20 20 20 18 18
38 38 39 42 40 42 45 42 46 45 49 49 47 47 46 62 79 88 97 93 75 63 55 57 52 49 44 39 37 34 30 26 25 24 27 26 21 16 19 19 19 20 17
41 39 39 40 42 41 42 39 39 42 48 51 51 46 44 47 70 82 92 84 73 60 56 56 53 49 46 47 45 41 42 41 39 27 32 30 27 23 21 21 19 19 21
Wind_Direction_850mb
169 172 183 197 195 203 208 211 209 208 205 198 203 205 208 210 214 215 220 231 237 236 238 241 244 254 253 254 262 279 276 277 277 291 293 288 293 287 288 277 272 261 264
168 173 189 197 201 204 210 212 209 210 210 204 197 202 204 206 201 209 220 231 236 246 252 243 235 235 251 282 280 283 278 275 274 277 282 288 279 266 276 270 272 283 278
177 176 188 201 205 207 210 209 208 209 209 202 201 202 199 203 210 225 234 235 237 251 255 255 251 246 252 254 243 261 271 270 260 257 250 249 258 268 268 268 267 265 269
187 177 177 193 203 209 212 213 213 213 209 212 207 208 206 215 215 229 245 255 253 255 264 265 257 256 250 252 247 254 263 268 264 267 252 254 254 264 272 279 276 257 272
193 187 178 181 187 200 206 212 216 216 218 217 209 217 219 227 239 245 249 250 255 256 254 261 265 260 255 259 257 253 247 245 250 254 262 264 276 263 249 267 264 270 270
197 192 187 180 184 194 199 199 203 212 217 219 221 222 230 237 241 238 241 248 252 257 262 266 265 253 247 252 253 251 254 259 263 264 261 266 267 272 259 262 263 268 263
197 195 193 188 192 183 179 192 196 199 206 211 217 224 227 228 233 243 246 243 245 252 258 254 251 250 249 252 255 256 258 258 259 263 260 257 256 258 258 265 269 271 272
200 199 197 193 192 186 179 187 189 197 201 206 211 218 223 225 228 229 233 232 226 229 237 236 242 247 252 256 258 259 257 260 262 263 263 263 265 262 263 264 267 274 275
207 204 198 193 186 180 181 179 188 196 198 204 205 207 209 212 213 218 215 218 223 234 240 246 251 254 258 260 261 256 262 265 267 270 267 268 268 267 267 267 273 276 284
207 207 202 193 187 183 186 188 194 199 206 203 202 203 206 205 206 211 217 219 226 228 228 232 236 244 257 266 270 280 280 278 274 273 278 277 277 279 277 274 274 270 273
205 205 199 196 191 190 192 198 201 204 204 206 212 212 210 210 211 214 217 218 218 216 219 225 235 250 264 272 272 275 284 294 297 298 299 297 296 292 291 283 281 279 274
199 199 198 195 194 197 196 200 204 206 207 209 211 213 217 218 217 217 217 217 218 218 220 229 240 254 270 286 298 308 315 318 316 313 310 305 300 300 298 293 290 283 280
187 194 195 198 201 203 204 205 208 210 205 208 216 220 216 214 214 218 218 218 220 222 229 239 250 266 275 289 305 317 324 322 318 318 316 314 310 311 300 298 293 289 287
183 194 201 208 212 213 216 215 214 212 211 215 212 215 216 216 217 220 219 219 221 226 232 238 244 248 254 268 287 300 314 321 329 326 319 323 319 319 312 307 301 297 283
72 110 221 226 229 229 226 226 225 222 218 218 216 216 215 214 217 220 220 219 221 224 227 235 236 239 242 236 237 263 290 315 321 322 329 320 314 324 325 316 313 307 288
54 53 38 282 267 245 241 239 237 232 225 223 223 222 220 217 219 221 222 224 225 225 231 230 227 232 220 244 252 246 250 281 307 325 328 331 325 337 331 321 324 313 308
22 20 13 350 315 292 271 259 246 239 232 229 227 230 228 222 221 219 219 219 220 222 224 224 225 231 223 250 246 248 224 256 284 306 331 334 315 329 326 341 343 338 322
341 335 329 323 316 310 300 292 270 240 234 233 235 228 224 220 216 214 215 216 216 219 222 221 228 228 226 247 245 248 236 249 263 275 303 315 328 308 326 339 339 332 332
321 314 310 306 303 302 302 301 295 253 241 236 232 228 223 219 215 214 215 214 215 220 221 222 227 225 222 243 242 243 228 242 251 261 260 279 301 305 326 337 337 344 352
309 306 303 300 296 293 294 297 294 276 255 242 238 230 226 223 218 217 216 217 213 219 222 222 227 226 221 253 240 234 219 234 237 242 265 271 286 308 331 338 343 338 1
307 303 301 297 289 287 287 284 284 277 267 253 244 239 231 225 222 220 214 216 214 213 220 223 223 222 230 238 244 228 204 223 229 217 254 238 281 324 351 348 6 32 17
306 306 302 297 292 285 280 279 276 277 275 266 251 241 237 231 223 218 214 213 211 212 217 221 221 223 223 228 236 221 216 218 222 211 226 238 271 284 110 61 59 78 3
311 307 303 300 294 288 277 273 272 270 273 273 263 250 240 235 226 219 212 210 208 207 214 219 217 217 222 219 230 222 217 216 215 205 225 227 231 165 127 346 204 297 310
316 312 303 300 298 296 284 274 273 270 266 269 271 264 247 237 228 224 218 213 206 206 211 214 211 211 210 206 218 205 206 207 210 202 210 202 196 229 244 274 304 309 297
319 325 307 303 303 300 293 283 275 272 270 267 267 269 261 246 233 229 223 220 216 211 209 213 208 201 203 199 188 183 192 196 204 201 211 223 231 249 270 281 289 289 281
328 328 326 315 304 305 299 292 279 274 270 267 264 266 267 268 249 237 226 219 220 223 224 211 212 207 199 203 195 192 192 197 208 215 213 225 237 243 257 272 280 280 269